Time,TemperatureF,DewpointF,PressureIn,WindDirection,WindDirectionDegrees,WindSpeedMPH,WindSpeedGustMPH,Humidity,HourlyPrecipIn,Conditions,Clouds,dailyrainin,SoftwareType,DateUTC
2013-11-18 00:00:00,74.8,74.2,29.95,WSW,241,3.0,3.0,98,0.00,,,0.02,Wunderground v.1.15,2013-11-18 06:00:00,
2013-11-18 00:05:00,74.8,74.2,29.95,SW,219,3.0,3.0,98,0.00,,,0.00,Wunderground v.1.15,2013-11-18 06:05:00,
2013-11-18 00:15:00,74.8,74.2,29.95,WSW,243,3.0,3.0,98,0.00,,,0.00,Wunderground v.1.15,2013-11-18 06:15:00,
2013-11-18 00:20:00,74.8,74.2,29.95,WSW,242,4.0,5.0,98,0.00,,,0.00,Wunderground v.1.15,2013-11-18 06:20:00,
2013-11-18 00:25:00,74.8,74.2,29.95,WSW,238,4.0,5.0,98,0.00,,,0.00,Wunderground v.1.15,2013-11-18 06:25:00,
2013-11-18 00:30:00,74.8,74.2,29.95,WSW,257,5.0,5.0,98,0.00,,,0.00,Wunderground v.1.15,2013-11-18 06:30:00,
2013-11-18 00:35:00,74.8,74.2,29.95,West,263,4.0,5.0,98,0.00,,,0.00,Wunderground v.1.15,2013-11-18 06:35:00,
2013-11-18 00:40:00,74.7,74.1,29.95,WSW,255,4.0,6.0,98,0.00,,,0.00,Wunderground v.1.15,2013-11-18 06:40:00,
2013-11-18 00:45:00,74.7,74.1,29.95,WSW,255,4.0,6.0,98,0.00,,,0.00,Wunderground v.1.15,2013-11-18 06:45:00,
2013-11-18 00:50:00,74.6,74.0,29.95,WSW,239,4.0,4.0,98,0.00,,,0.00,Wunderground v.1.15,2013-11-18 06:50:00,
2013-11-18 00:55:00,74.6,74.0,29.95,WSW,252,3.0,4.0,98,0.00,,,0.00,Wunderground v.1.15,2013-11-18 06:55:00,
2013-11-18 01:00:00,74.6,74.0,29.96,WNW,298,2.0,2.0,98,0.00,,,0.00,Wunderground v.1.15,2013-11-18 07:00:00,
2013-11-18 01:05:00,74.6,74.3,29.96,WSW,257,2.0,3.0,99,0.00,,,0.00,Wunderground v.1.15,2013-11-18 07:05:00,
2013-11-18 01:10:00,74.5,74.2,29.96,West,263,2.0,2.0,99,0.00,,,0.00,Wunderground v.1.15,2013-11-18 07:10:00,
2013-11-18 01:20:00,74.5,74.2,29.96,WNW,298,1.0,1.0,99,0.00,,,0.00,Wunderground v.1.15,2013-11-18 07:20:00,
2013-11-18 01:25:00,74.5,74.2,29.96,NW,309,1.0,2.0,99,0.00,,,0.00,Wunderground v.1.15,2013-11-18 07:25:00,
2013-11-18 01:30:00,74.4,74.1,29.96,West,280,1.0,3.0,99,0.00,,,0.00,Wunderground v.1.15,2013-11-18 07:30:00,
2013-11-18 01:35:00,74.4,74.1,29.96,WNW,297,1.0,3.0,99,0.00,,,0.00,Wunderground v.1.15,2013-11-18 07:35:00,
2013-11-18 01:40:00,74.3,74.0,29.96,WNW,288,1.0,3.0,99,0.00,,,0.00,Wunderground v.1.15,2013-11-18 07:40:00,
2013-11-18 01:50:00,74.3,74.0,29.96,WNW,293,1.0,3.0,99,0.00,,,0.00,Wunderground v.1.15,2013-11-18 07:50:00,
2013-11-18 01:55:00,74.3,74.0,29.96,WNW,290,1.0,3.0,99,0.00,,,0.00,Wunderground v.1.15,2013-11-18 07:55:00,
2013-11-18 02:00:00,74.3,74.0,29.96,WNW,302,1.0,1.0,99,0.00,,,0.00,Wunderground v.1.15,2013-11-18 08:00:00,
2013-11-18 02:05:00,74.3,74.0,29.96,WNW,302,0.0,3.0,99,0.00,,,0.00,Wunderground v.1.15,2013-11-18 08:05:00,
2013-11-18 02:10:00,74.3,74.0,29.96,WNW,299,0.0,3.0,99,0.00,,,0.00,Wunderground v.1.15,2013-11-18 08:10:00,
2013-11-18 02:15:00,74.3,74.0,29.96,WNW,297,1.0,3.0,99,0.00,,,0.00,Wunderground v.1.15,2013-11-18 08:15:00,
2013-11-18 02:25:00,74.2,73.9,29.96,WNW,296,1.0,3.0,99,0.00,,,0.00,Wunderground v.1.15,2013-11-18 08:25:00,
2013-11-18 02:30:00,74.2,73.9,29.96,WNW,285,1.0,3.0,99,0.00,,,0.00,Wunderground v.1.15,2013-11-18 08:30:00,
2013-11-18 02:35:00,74.2,73.9,29.96,NW,305,1.0,3.0,99,0.00,,,0.00,Wunderground v.1.15,2013-11-18 08:35:00,
2013-11-18 02:40:00,74.2,73.9,29.96,WNW,285,1.0,3.0,99,0.00,,,0.00,Wunderground v.1.15,2013-11-18 08:40:00,
2013-11-18 02:45:00,74.1,73.8,29.96,WNW,287,0.0,3.0,99,0.00,,,0.00,Wunderground v.1.15,2013-11-18 08:45:00,
2013-11-18 02:55:00,74.1,73.8,29.96,West,266,0.0,3.0,99,0.00,,,0.00,Wunderground v.1.15,2013-11-18 08:55:00,
2013-11-18 03:00:00,74.1,73.8,29.96,WSW,257,1.0,1.0,99,0.00,,,0.00,Wunderground v.1.15,2013-11-18 09:00:00,
2013-11-18 03:05:00,74.1,73.8,29.96,West,269,1.0,3.0,99,0.00,,,0.00,Wunderground v.1.15,2013-11-18 09:05:00,
2013-11-18 03:10:00,74.1,73.8,29.96,WNW,286,1.0,3.0,99,0.00,,,0.00,Wunderground v.1.15,2013-11-18 09:10:00,
2013-11-18 03:15:00,74.1,73.8,29.96,WNW,296,1.0,3.0,99,0.00,,,0.00,Wunderground v.1.15,2013-11-18 09:15:00,
2013-11-18 03:20:00,74.1,73.8,29.97,WNW,284,1.0,1.0,99,0.00,,,0.00,Wunderground v.1.15,2013-11-18 09:20:00,
2013-11-18 03:30:00,74.1,73.8,29.96,WNW,290,0.0,3.0,99,0.00,,,0.00,Wunderground v.1.15,2013-11-18 09:30:00,
2013-11-18 03:35:00,74.1,73.8,29.96,WNW,300,1.0,3.0,99,0.00,,,0.00,Wunderground v.1.15,2013-11-18 09:35:00,
2013-11-18 03:40:00,74.0,73.7,29.96,WNW,298,0.0,3.0,99,0.00,,,0.00,Wunderground v.1.15,2013-11-18 09:40:00,
2013-11-18 03:45:00,74.0,73.7,29.97,WNW,292,1.0,3.0,99,0.00,,,0.00,Wunderground v.1.15,2013-11-18 09:45:00,
2013-11-18 03:50:00,74.0,73.7,29.96,West,278,1.0,3.0,99,0.00,,,0.01,Wunderground v.1.15,2013-11-18 09:50:00,
2013-11-18 03:55:00,74.0,74.0,29.96,WNW,293,1.0,3.0,100,0.20,,,0.03,Wunderground v.1.15,2013-11-18 09:55:00,
2013-11-18 04:00:00,74.0,74.0,29.96,WNW,292,1.0,3.0,100,0.08,,,0.03,Wunderground v.1.15,2013-11-18 10:00:00,
2013-11-18 04:05:00,74.0,74.0,29.96,WNW,283,1.0,3.0,100,0.05,,,0.03,Wunderground v.1.15,2013-11-18 10:05:00,
2013-11-18 04:15:00,73.9,73.9,29.96,WNW,294,1.0,3.0,100,0.05,,,0.04,Wunderground v.1.15,2013-11-18 10:15:00,
2013-11-18 04:20:00,73.9,73.6,29.96,NW,321,1.0,3.0,99,0.04,,,0.04,Wunderground v.1.15,2013-11-18 10:20:00,
2013-11-18 04:25:00,73.9,73.9,29.96,NW,323,1.0,3.0,100,0.00,,,0.04,Wunderground v.1.15,2013-11-18 10:25:00,
2013-11-18 04:30:00,73.9,73.9,29.96,NW,326,1.0,3.0,100,0.00,,,0.04,Wunderground v.1.15,2013-11-18 10:30:00,
2013-11-18 04:35:00,73.8,73.8,29.96,NW,314,1.0,3.0,100,0.00,,,0.04,Wunderground v.1.15,2013-11-18 10:35:00,
2013-11-18 04:40:00,73.8,73.8,29.96,NW,316,1.0,3.0,100,0.00,,,0.04,Wunderground v.1.15,2013-11-18 10:40:00,
2013-11-18 04:45:00,73.8,73.8,29.96,NNW,330,2.0,3.0,100,0.00,,,0.04,Wunderground v.1.15,2013-11-18 10:45:00,
2013-11-18 04:50:00,73.8,73.8,29.96,NW,323,1.0,3.0,100,0.00,,,0.04,Wunderground v.1.15,2013-11-18 10:50:00,
2013-11-18 04:55:00,73.7,73.7,29.96,NNW,333,1.0,3.0,100,0.00,,,0.04,Wunderground v.1.15,2013-11-18 10:55:00,
2013-11-18 05:05:00,73.7,73.7,29.95,NW,321,2.0,3.0,100,0.00,,,0.04,Wunderground v.1.15,2013-11-18 11:05:00,
2013-11-18 05:10:00,73.7,73.7,29.95,NNW,330,2.0,3.0,100,0.00,,,0.04,Wunderground v.1.15,2013-11-18 11:10:00,
2013-11-18 05:15:00,73.8,73.8,29.96,NW,311,2.0,3.0,100,0.00,,,0.04,Wunderground v.1.15,2013-11-18 11:15:00,
2013-11-18 05:20:00,73.7,73.7,29.96,North,357,2.0,3.0,100,0.00,,,0.04,Wunderground v.1.15,2013-11-18 11:20:00,
2013-11-18 05:25:00,73.8,73.8,29.96,NW,326,2.0,3.0,100,0.00,,,0.04,Wunderground v.1.15,2013-11-18 11:25:00,
2013-11-18 05:35:00,73.8,73.8,29.96,WNW,303,2.0,4.0,100,0.00,,,0.04,Wunderground v.1.15,2013-11-18 11:35:00,
2013-11-18 05:40:00,73.7,73.7,29.96,NW,323,2.0,2.0,100,0.00,,,0.04,Wunderground v.1.15,2013-11-18 11:40:00,
2013-11-18 05:45:00,73.7,73.7,29.96,WNW,295,2.0,3.0,100,0.00,,,0.04,Wunderground v.1.15,2013-11-18 11:45:00,
2013-11-18 05:50:00,73.7,73.7,29.96,NNW,328,2.0,3.0,100,0.00,,,0.04,Wunderground v.1.15,2013-11-18 11:50:00,
2013-11-18 05:55:00,73.7,73.7,29.96,NNW,332,3.0,3.0,100,0.00,,,0.04,Wunderground v.1.15,2013-11-18 11:55:00,
2013-11-18 06:00:00,73.6,73.6,29.97,NNW,332,3.0,3.0,100,0.00,,,0.04,Wunderground v.1.15,2013-11-18 12:00:00,
2013-11-18 06:10:00,73.4,73.4,29.97,NNW,343,2.0,2.0,100,0.00,,,0.05,Wunderground v.1.15,2013-11-18 12:10:00,
2013-11-18 06:15:00,73.3,73.3,29.97,NW,312,1.0,3.0,100,0.00,,,0.05,Wunderground v.1.15,2013-11-18 12:15:00,
2013-11-18 06:20:00,73.3,73.3,29.97,NNW,346,1.0,3.0,100,0.00,,,0.05,Wunderground v.1.15,2013-11-18 12:20:00,
2013-11-18 06:25:00,73.3,73.3,29.98,NNW,344,2.0,6.0,100,0.00,,,0.05,Wunderground v.1.15,2013-11-18 12:25:00,
2013-11-18 06:30:00,72.0,71.1,29.99,NNW,342,6.0,11.0,97,0.00,,,0.05,Wunderground v.1.15,2013-11-18 12:30:00,
2013-11-18 06:40:00,66.4,64.6,30.00,North,3,13.0,13.0,94,0.00,,,0.05,Wunderground v.1.15,2013-11-18 12:40:00,
2013-11-18 06:45:00,65.0,63.5,30.01,NNE,32,12.0,13.0,95,0.00,,,0.05,Wunderground v.1.15,2013-11-18 12:45:00,
2013-11-18 06:50:00,64.3,63.1,30.01,NNW,344,8.0,8.0,96,0.00,,,0.05,Wunderground v.1.15,2013-11-18 12:50:00,
2013-11-18 06:55:00,63.9,63.0,30.01,NNE,16,7.0,8.0,97,0.00,,,0.05,Wunderground v.1.15,2013-11-18 12:55:00,
2013-11-18 07:00:00,63.7,62.8,30.02,NNE,22,6.0,6.0,97,0.00,,,0.06,Wunderground v.1.15,2013-11-18 13:00:00,
2013-11-18 07:05:00,63.6,62.7,30.02,North,3,4.0,6.0,97,0.00,,,0.06,Wunderground v.1.15,2013-11-18 13:05:00,
2013-11-18 07:15:00,63.5,62.6,30.03,NNE,30,4.0,4.0,97,0.00,,,0.06,Wunderground v.1.15,2013-11-18 13:15:00,
2013-11-18 07:20:00,63.4,62.2,30.03,North,11,4.0,8.0,96,0.00,,,0.06,Wunderground v.1.15,2013-11-18 13:20:00,
2013-11-18 07:25:00,63.3,60.6,30.03,ENE,68,6.0,8.0,91,0.00,,,0.06,Wunderground v.1.15,2013-11-18 13:25:00,
2013-11-18 07:30:00,63.0,58.7,30.03,NE,38,7.0,7.0,86,0.00,,,0.06,Wunderground v.1.15,2013-11-18 13:30:00,
2013-11-18 07:35:00,62.5,57.3,30.03,ENE,65,7.0,7.0,83,0.00,,,0.06,Wunderground v.1.15,2013-11-18 13:35:00,
2013-11-18 07:40:00,62.2,56.3,30.03,NE,46,8.0,8.0,81,0.00,,,0.06,Wunderground v.1.15,2013-11-18 13:40:00,
2013-11-18 07:45:00,61.9,56.3,30.04,NE,50,7.0,8.0,82,0.00,,,0.06,Wunderground v.1.15,2013-11-18 13:45:00,
2013-11-18 07:50:00,61.8,55.9,30.04,ENE,71,6.0,7.0,81,0.00,,,0.06,Wunderground v.1.15,2013-11-18 13:50:00,
2013-11-18 07:55:00,61.8,55.6,30.04,ENE,62,5.0,7.0,80,0.00,,,0.06,Wunderground v.1.15,2013-11-18 13:55:00,
2013-11-18 08:00:00,62.2,54.9,30.04,ENE,68,5.0,5.0,77,0.00,,,0.06,Wunderground v.1.15,2013-11-18 14:00:00,
2013-11-18 08:10:00,62.8,54.8,30.05,ESE,117,5.0,5.0,75,0.00,,,0.06,Wunderground v.1.15,2013-11-18 14:10:00,
2013-11-18 08:15:00,62.9,54.9,30.05,NE,51,4.0,5.0,75,0.00,,,0.06,Wunderground v.1.15,2013-11-18 14:15:00,
2013-11-18 08:20:00,63.2,54.4,30.05,ENE,70,4.0,4.0,73,0.00,,,0.06,Wunderground v.1.15,2013-11-18 14:20:00,
2013-11-18 08:25:00,63.5,55.1,30.06,ENE,75,3.0,4.0,74,0.00,,,0.06,Wunderground v.1.15,2013-11-18 14:25:00,
2013-11-18 08:30:00,63.8,55.4,30.06,East,90,3.0,3.0,74,0.00,,,0.06,Wunderground v.1.15,2013-11-18 14:30:00,
2013-11-18 08:35:00,63.9,55.1,30.06,East,91,3.0,5.0,73,0.00,,,0.06,Wunderground v.1.15,2013-11-18 14:35:00,
2013-11-18 08:40:00,64.1,55.3,30.06,ENE,61,4.0,4.0,73,0.00,,,0.06,Wunderground v.1.15,2013-11-18 14:40:00,
2013-11-18 08:50:00,64.3,54.7,30.07,East,79,3.0,5.0,71,0.00,,,0.06,Wunderground v.1.15,2013-11-18 14:50:00,
2013-11-18 08:55:00,64.4,55.2,30.08,East,79,3.0,5.0,72,0.00,,,0.06,Wunderground v.1.15,2013-11-18 14:55:00,
2013-11-18 09:00:00,64.6,54.6,30.08,ENE,66,3.0,3.0,70,0.00,,,0.06,Wunderground v.1.15,2013-11-18 15:00:00,
2013-11-18 09:05:00,65.1,55.1,30.08,ESE,116,3.0,3.0,70,0.00,,,0.06,Wunderground v.1.15,2013-11-18 15:05:00,
2013-11-18 09:10:00,65.4,54.2,30.08,ENE,64,3.0,4.0,67,0.00,,,0.06,Wunderground v.1.15,2013-11-18 15:10:00,
2013-11-18 09:20:00,65.9,54.6,30.08,ENE,75,3.0,5.0,67,0.00,,,0.06,Wunderground v.1.15,2013-11-18 15:20:00,
2013-11-18 09:25:00,66.0,54.3,30.08,East,91,3.0,5.0,66,0.00,,,0.06,Wunderground v.1.15,2013-11-18 15:25:00,
2013-11-18 09:30:00,66.2,54.5,30.08,SE,133,2.0,3.0,66,0.00,,,0.06,Wunderground v.1.15,2013-11-18 15:30:00,
2013-11-18 09:35:00,66.4,53.4,30.08,North,358,3.0,3.0,63,0.00,,,0.06,Wunderground v.1.15,2013-11-18 15:35:00,
2013-11-18 09:40:00,66.5,52.6,30.08,NE,55,3.0,4.0,61,0.00,,,0.06,Wunderground v.1.15,2013-11-18 15:40:00,
2013-11-18 09:45:00,66.7,52.4,30.08,NE,36,4.0,4.0,60,0.00,,,0.06,Wunderground v.1.15,2013-11-18 15:45:00,
2013-11-18 09:55:00,67.1,52.7,30.08,NNE,26,3.0,4.0,60,0.00,,,0.06,Wunderground v.1.15,2013-11-18 15:55:00,
2013-11-18 10:00:00,67.3,52.5,30.08,ENE,68,3.0,6.0,59,0.00,,,0.06,Wunderground v.1.15,2013-11-18 16:00:00,
2013-11-18 10:05:00,67.6,52.8,30.08,SE,131,3.0,6.0,59,0.00,,,0.06,Wunderground v.1.15,2013-11-18 16:05:00,
2013-11-18 10:10:00,67.7,51.4,30.08,NE,38,4.0,4.0,56,0.00,,,0.06,Wunderground v.1.15,2013-11-18 16:10:00,
2013-11-18 10:15:00,67.8,52.0,30.08,ENE,64,4.0,4.0,57,0.00,,,0.06,Wunderground v.1.15,2013-11-18 16:15:00,
2013-11-18 10:25:00,67.9,51.6,30.08,East,94,4.0,5.0,56,0.00,,,0.06,Wunderground v.1.15,2013-11-18 16:25:00,
2013-11-18 10:30:00,68.1,51.3,30.07,NE,48,4.0,4.0,55,0.00,,,0.06,Wunderground v.1.15,2013-11-18 16:30:00,
2013-11-18 10:35:00,68.3,50.5,30.07,ENE,78,5.0,5.0,53,0.00,,,0.06,Wunderground v.1.15,2013-11-18 16:35:00,
2013-11-18 10:40:00,68.7,50.4,30.08,ENE,68,4.0,4.0,52,0.00,,,0.06,Wunderground v.1.15,2013-11-18 16:40:00,
2013-11-18 10:45:00,69.1,50.7,30.08,East,84,4.0,5.0,52,0.00,,,0.06,Wunderground v.1.15,2013-11-18 16:45:00,
2013-11-18 10:50:00,69.4,52.0,30.07,ENE,71,4.0,6.0,54,0.00,,,0.06,Wunderground v.1.15,2013-11-18 16:50:00,
2013-11-18 11:00:00,69.7,51.3,30.06,ENE,68,5.0,5.0,52,0.00,,,0.06,Wunderground v.1.15,2013-11-18 17:00:00,
2013-11-18 11:05:00,70.0,49.4,30.07,ENE,67,5.0,5.0,48,0.00,,,0.06,Wunderground v.1.15,2013-11-18 17:05:00,
2013-11-18 11:10:00,70.3,49.7,30.07,NNE,32,5.0,5.0,48,0.00,,,0.06,Wunderground v.1.15,2013-11-18 17:10:00,
2013-11-18 11:15:00,70.5,49.9,30.06,ENE,63,5.0,5.0,48,0.00,,,0.06,Wunderground v.1.15,2013-11-18 17:15:00,
2013-11-18 11:20:00,70.5,49.3,30.06,ENE,69,5.0,5.0,47,0.00,,,0.06,Wunderground v.1.15,2013-11-18 17:20:00,
2013-11-18 11:30:00,70.8,47.8,30.06,ENE,72,5.0,5.0,44,0.00,,,0.06,Wunderground v.1.15,2013-11-18 17:30:00,
2013-11-18 11:35:00,71.2,48.2,30.05,East,84,5.0,5.0,44,0.00,,,0.06,Wunderground v.1.15,2013-11-18 17:35:00,
2013-11-18 11:40:00,71.5,47.8,30.05,East,97,5.0,5.0,43,0.00,,,0.06,Wunderground v.1.15,2013-11-18 17:40:00,
2013-11-18 11:45:00,72.0,45.0,30.05,SE,133,7.0,7.0,38,0.00,,,0.06,Wunderground v.1.15,2013-11-18 17:45:00,
2013-11-18 11:50:00,72.3,44.6,30.05,NE,51,7.0,12.0,37,0.00,,,0.06,Wunderground v.1.15,2013-11-18 17:50:00,
2013-11-18 11:55:00,72.2,44.5,30.05,ENE,57,7.0,12.0,37,0.00,,,0.06,Wunderground v.1.15,2013-11-18 17:55:00,
2013-11-18 12:00:00,72.7,46.3,30.05,ENE,78,8.0,8.0,39,0.00,,,0.06,Wunderground v.1.15,2013-11-18 18:00:00,
2013-11-18 12:10:00,73.7,45.8,30.05,ESE,119,6.0,6.0,37,0.00,,,0.06,Wunderground v.1.15,2013-11-18 18:10:00,
2013-11-18 12:15:00,74.3,49.1,30.05,SW,214,5.0,6.0,41,0.00,,,0.06,Wunderground v.1.15,2013-11-18 18:15:00,
2013-11-18 12:20:00,75.0,49.0,30.05,ENE,61,4.0,6.0,40,0.00,,,0.06,Wunderground v.1.15,2013-11-18 18:20:00,
2013-11-18 12:25:00,74.8,46.1,30.05,ENE,72,5.0,6.0,36,0.00,,,0.06,Wunderground v.1.15,2013-11-18 18:25:00,
2013-11-18 12:30:00,74.2,46.2,30.05,NE,54,7.0,8.0,37,0.00,,,0.06,Wunderground v.1.15,2013-11-18 18:30:00,
2013-11-18 12:35:00,73.7,46.5,30.05,NE,53,7.0,8.0,38,0.00,,,0.06,Wunderground v.1.15,2013-11-18 18:35:00,
2013-11-18 12:40:00,73.7,47.2,30.05,NE,37,6.0,6.0,39,0.00,,,0.06,Wunderground v.1.15,2013-11-18 18:40:00,
2013-11-18 12:45:00,73.7,47.2,30.04,ENE,68,5.0,6.0,39,0.00,,,0.06,Wunderground v.1.15,2013-11-18 18:45:00,
2013-11-18 12:50:00,74.2,47.6,30.04,ESE,110,5.0,7.0,39,0.00,,,0.06,Wunderground v.1.15,2013-11-18 18:50:00,
2013-11-18 12:55:00,74.5,48.6,30.04,NE,54,5.0,7.0,40,0.00,,,0.06,Wunderground v.1.15,2013-11-18 18:55:00,
2013-11-18 13:05:00,73.9,46.7,30.04,NNE,21,6.0,6.0,38,0.00,,,0.06,Wunderground v.1.15,2013-11-18 19:05:00,
2013-11-18 13:10:00,73.8,46.6,30.04,NE,49,6.0,6.0,38,0.00,,,0.06,Wunderground v.1.15,2013-11-18 19:10:00,
2013-11-18 13:15:00,73.8,45.2,30.04,NE,46,6.0,11.0,36,0.00,,,0.06,Wunderground v.1.15,2013-11-18 19:15:00,
2013-11-18 13:20:00,73.8,45.2,30.04,NE,44,6.0,6.0,36,0.00,,,0.06,Wunderground v.1.15,2013-11-18 19:20:00,
2013-11-18 13:25:00,74.2,46.2,30.04,NE,49,5.0,6.0,37,0.00,,,0.06,Wunderground v.1.15,2013-11-18 19:25:00,
2013-11-18 13:30:00,74.7,47.4,30.04,NNE,27,4.0,5.0,38,0.00,,,0.06,Wunderground v.1.15,2013-11-18 19:30:00,
2013-11-18 13:40:00,74.8,46.1,30.03,NE,40,5.0,5.0,36,0.00,,,0.06,Wunderground v.1.15,2013-11-18 19:40:00,
2013-11-18 13:45:00,74.7,47.4,30.03,ENE,62,5.0,5.0,38,0.00,,,0.06,Wunderground v.1.15,2013-11-18 19:45:00,
2013-11-18 13:50:00,74.6,45.9,30.03,ENE,67,5.0,7.0,36,0.00,,,0.06,Wunderground v.1.15,2013-11-18 19:50:00,
2013-11-18 13:55:00,74.5,45.8,30.03,East,81,5.0,7.0,36,0.00,,,0.06,Wunderground v.1.15,2013-11-18 19:55:00,
2013-11-18 14:00:00,74.3,46.3,30.03,ENE,70,5.0,5.0,37,0.00,,,0.06,Wunderground v.1.15,2013-11-18 20:00:00,
2013-11-18 14:10:00,74.3,47.0,30.02,ENE,77,3.0,3.0,38,0.00,,,0.06,Wunderground v.1.15,2013-11-18 20:10:00,
2013-11-18 14:15:00,74.6,48.0,30.02,ENE,72,3.0,3.0,39,0.00,,,0.06,Wunderground v.1.15,2013-11-18 20:15:00,
2013-11-18 14:20:00,75.2,46.4,30.02,ENE,60,4.0,10.0,36,0.00,,,0.06,Wunderground v.1.15,2013-11-18 20:20:00,
2013-11-18 14:25:00,75.2,47.1,30.02,East,79,5.0,10.0,37,0.00,,,0.06,Wunderground v.1.15,2013-11-18 20:25:00,
2013-11-18 14:30:00,75.2,47.1,30.03,NE,44,5.0,5.0,37,0.00,,,0.06,Wunderground v.1.15,2013-11-18 20:30:00,
2013-11-18 14:35:00,75.4,46.6,30.03,NNE,26,4.0,6.0,36,0.00,,,0.06,Wunderground v.1.15,2013-11-18 20:35:00,
2013-11-18 14:45:00,75.6,47.5,30.03,East,81,4.0,5.0,37,0.00,,,0.06,Wunderground v.1.15,2013-11-18 20:45:00,
2013-11-18 14:50:00,76.2,49.4,30.03,North,4,3.0,3.0,39,0.00,,,0.06,Wunderground v.1.15,2013-11-18 20:50:00,
2013-11-18 14:55:00,76.3,46.6,30.02,NNE,18,4.0,5.0,35,0.00,,,0.06,Wunderground v.1.15,2013-11-18 20:55:00,
2013-11-18 15:00:00,76.7,47.7,30.02,East,84,4.0,5.0,36,0.00,,,0.06,Wunderground v.1.15,2013-11-18 21:00:00,
2013-11-18 15:05:00,76.5,47.6,30.02,NE,42,4.0,5.0,36,0.00,,,0.06,Wunderground v.1.15,2013-11-18 21:05:00,
2013-11-18 15:15:00,76.1,49.3,30.03,East,84,3.0,7.0,39,0.00,,,0.06,Wunderground v.1.15,2013-11-18 21:15:00,
2013-11-18 15:20:00,75.9,47.0,30.03,NE,49,4.0,4.0,36,0.00,,,0.06,Wunderground v.1.15,2013-11-18 21:20:00,
2013-11-18 15:25:00,75.6,46.8,30.03,East,86,4.0,4.0,36,0.00,,,0.06,Wunderground v.1.15,2013-11-18 21:25:00,
2013-11-18 15:30:00,75.4,48.7,30.03,ENE,77,3.0,3.0,39,0.00,,,0.06,Wunderground v.1.15,2013-11-18 21:30:00,
2013-11-18 15:35:00,75.3,47.9,30.03,East,92,3.0,4.0,38,0.00,,,0.06,Wunderground v.1.15,2013-11-18 21:35:00,
2013-11-18 15:40:00,75.4,48.0,30.03,East,101,3.0,3.0,38,0.00,,,0.06,Wunderground v.1.15,2013-11-18 21:40:00,
2013-11-18 15:50:00,75.4,48.7,30.03,ENE,77,2.0,3.0,39,0.00,,,0.06,Wunderground v.1.15,2013-11-18 21:50:00,
2013-11-18 15:55:00,75.3,50.0,30.03,ESE,112,2.0,3.0,41,0.00,,,0.06,Wunderground v.1.15,2013-11-18 21:55:00,
2013-11-18 16:00:00,75.1,49.8,30.03,ESE,120,1.0,3.0,41,0.00,,,0.06,Wunderground v.1.15,2013-11-18 22:00:00,
2013-11-18 16:05:00,75.0,49.7,30.04,ESE,105,2.0,3.0,41,0.00,,,0.06,Wunderground v.1.15,2013-11-18 22:05:00,
2013-11-18 16:10:00,75.1,51.1,30.03,East,91,2.0,3.0,43,0.00,,,0.06,Wunderground v.1.15,2013-11-18 22:10:00,
2013-11-18 16:20:00,75.1,52.3,30.04,East,80,2.0,2.0,45,0.00,,,0.06,Wunderground v.1.15,2013-11-18 22:20:00,
2013-11-18 16:25:00,75.1,51.1,30.04,NNE,31,1.0,3.0,43,0.00,,,0.06,Wunderground v.1.15,2013-11-18 22:25:00,
2013-11-18 16:30:00,74.8,52.0,30.04,NNE,32,1.0,3.0,45,0.00,,,0.06,Wunderground v.1.15,2013-11-18 22:30:00,
2013-11-18 16:35:00,74.3,51.6,30.04,NNW,345,1.0,3.0,45,0.00,,,0.06,Wunderground v.1.15,2013-11-18 22:35:00,
2013-11-18 16:40:00,74.0,52.5,30.04,NNW,332,2.0,3.0,47,0.00,,,0.06,Wunderground v.1.15,2013-11-18 22:40:00,
2013-11-18 16:45:00,73.5,53.2,30.04,North,7,3.0,3.0,49,0.00,,,0.06,Wunderground v.1.15,2013-11-18 22:45:00,
2013-11-18 16:55:00,72.5,52.2,30.05,NNW,340,2.0,3.0,49,0.00,,,0.06,Wunderground v.1.15,2013-11-18 22:55:00,
2013-11-18 17:00:00,71.9,52.8,30.05,North,11,2.0,2.0,51,0.00,,,0.06,Wunderground v.1.15,2013-11-18 23:00:00,
2013-11-18 17:05:00,71.3,50.6,30.05,North,4,2.0,3.0,48,0.00,,,0.06,Wunderground v.1.15,2013-11-18 23:05:00,
2013-11-18 17:10:00,71.1,49.8,30.05,NE,36,2.0,2.0,47,0.00,,,0.06,Wunderground v.1.15,2013-11-18 23:10:00,
2013-11-18 17:15:00,70.7,48.9,30.05,NNE,15,3.0,5.0,46,0.00,,,0.06,Wunderground v.1.15,2013-11-18 23:15:00,
2013-11-18 17:20:00,70.3,48.5,30.05,North,8,3.0,3.0,46,0.00,,,0.06,Wunderground v.1.15,2013-11-18 23:20:00,
2013-11-18 17:25:00,70.0,48.3,30.05,North,6,3.0,3.0,46,0.00,,,0.06,Wunderground v.1.15,2013-11-18 23:25:00,
2013-11-18 17:35:00,69.6,47.3,30.06,NNE,21,3.0,3.0,45,0.00,,,0.06,Wunderground v.1.15,2013-11-18 23:35:00,
2013-11-18 17:40:00,69.5,46.0,30.06,NE,39,4.0,4.0,43,0.00,,,0.06,Wunderground v.1.15,2013-11-18 23:40:00,
2013-11-18 17:45:00,69.2,45.1,30.06,North,352,3.0,4.0,42,0.00,,,0.06,Wunderground v.1.15,2013-11-18 23:45:00,
2013-11-18 17:50:00,69.2,44.5,30.06,NE,36,4.0,5.0,41,0.00,,,0.06,Wunderground v.1.15,2013-11-18 23:50:00,
2013-11-18 17:55:00,69.0,43.7,30.06,NE,41,5.0,5.0,40,0.00,,,0.06,Wunderground v.1.15,2013-11-18 23:55:00,
2013-11-18 18:00:00,68.8,43.5,30.06,NNE,26,5.0,5.0,40,0.00,,,0.06,Wunderground v.1.15,2013-11-19 00:00:00,
2013-11-18 18:05:00,68.6,43.9,30.06,NNE,27,5.0,5.0,41,0.00,,,0.06,Wunderground v.1.15,2013-11-19 00:05:00,
2013-11-18 18:10:00,68.5,42.6,30.06,NNE,32,5.0,7.0,39,0.00,,,0.06,Wunderground v.1.15,2013-11-19 00:10:00,
2013-11-18 18:20:00,68.3,42.4,30.07,North,356,4.0,6.0,39,0.00,,,0.06,Wunderground v.1.15,2013-11-19 00:20:00,
2013-11-18 18:25:00,68.3,41.7,30.07,NE,40,5.0,6.0,38,0.00,,,0.06,Wunderground v.1.15,2013-11-19 00:25:00,
2013-11-18 18:30:00,68.3,41.7,30.07,NE,34,5.0,8.0,38,0.00,,,0.06,Wunderground v.1.15,2013-11-19 00:30:00,
2013-11-18 18:35:00,68.1,41.5,30.08,NE,44,5.0,8.0,38,0.00,,,0.06,Wunderground v.1.15,2013-11-19 00:35:00,
2013-11-18 18:40:00,67.7,42.5,30.08,NNE,27,4.0,4.0,40,0.00,,,0.06,Wunderground v.1.15,2013-11-19 00:40:00,
2013-11-18 18:45:00,67.5,42.3,30.08,North,356,3.0,4.0,40,0.00,,,0.06,Wunderground v.1.15,2013-11-19 00:45:00,
2013-11-18 18:50:00,67.4,42.2,30.08,NNW,346,4.0,4.0,40,0.00,,,0.06,Wunderground v.1.15,2013-11-19 00:50:00,
2013-11-18 18:55:00,67.4,42.2,30.09,NNE,28,4.0,4.0,40,0.00,,,0.06,Wunderground v.1.15,2013-11-19 00:55:00,
2013-11-18 19:05:00,67.2,42.7,30.09,NE,34,4.0,4.0,41,0.00,,,0.06,Wunderground v.1.15,2013-11-19 01:05:00,
2013-11-18 19:10:00,67.2,42.0,30.09,NE,42,5.0,7.0,40,0.00,,,0.06,Wunderground v.1.15,2013-11-19 01:10:00,
2013-11-18 19:15:00,67.2,42.7,30.09,NNE,18,6.0,7.0,41,0.00,,,0.06,Wunderground v.1.15,2013-11-19 01:15:00,
2013-11-18 19:20:00,67.1,42.6,30.09,North,6,6.0,6.0,41,0.00,,,0.06,Wunderground v.1.15,2013-11-19 01:20:00,
2013-11-18 19:25:00,67.0,41.9,30.10,NNW,341,6.0,6.0,40,0.00,,,0.06,Wunderground v.1.15,2013-11-19 01:25:00,
2013-11-18 19:35:00,66.9,41.8,30.10,NE,50,8.0,9.0,40,0.00,,,0.06,Wunderground v.1.15,2013-11-19 01:35:00,
2013-11-18 19:40:00,66.8,41.0,30.10,NNE,30,8.0,8.0,39,0.00,,,0.06,Wunderground v.1.15,2013-11-19 01:40:00,
2013-11-18 19:45:00,66.6,41.5,30.10,NE,49,7.0,8.0,40,0.00,,,0.06,Wunderground v.1.15,2013-11-19 01:45:00,
2013-11-18 19:50:00,66.3,41.2,30.10,NE,49,7.0,7.0,40,0.00,,,0.06,Wunderground v.1.15,2013-11-19 01:50:00,
2013-11-18 19:55:00,66.0,41.0,30.10,ENE,58,7.0,7.0,40,0.00,,,0.06,Wunderground v.1.15,2013-11-19 01:55:00,
2013-11-18 20:00:00,65.8,40.8,30.10,NE,51,7.0,7.0,40,0.00,,,0.06,Wunderground v.1.15,2013-11-19 02:00:00,
2013-11-18 20:10:00,65.2,40.9,30.11,NNW,341,5.0,8.0,41,0.00,,,0.06,Wunderground v.1.15,2013-11-19 02:10:00,
2013-11-18 20:15:00,65.0,41.3,30.11,NE,41,6.0,8.0,42,0.00,,,0.06,Wunderground v.1.15,2013-11-19 02:15:00,
2013-11-18 20:20:00,64.9,40.6,30.11,NE,37,7.0,7.0,41,0.00,,,0.06,Wunderground v.1.15,2013-11-19 02:20:00,
2013-11-18 20:25:00,64.6,41.0,30.10,NE,36,6.0,7.0,42,0.00,,,0.06,Wunderground v.1.15,2013-11-19 02:25:00,
2013-11-18 20:30:00,64.4,41.4,30.10,NE,41,5.0,5.0,43,0.00,,,0.06,Wunderground v.1.15,2013-11-19 02:30:00,
2013-11-18 20:35:00,64.1,41.1,30.10,ENE,57,5.0,7.0,43,0.00,,,0.06,Wunderground v.1.15,2013-11-19 02:35:00,
2013-11-18 20:40:00,63.9,41.0,30.10,NE,49,5.0,11.0,43,0.00,,,0.06,Wunderground v.1.15,2013-11-19 02:40:00,
2013-11-18 20:45:00,63.7,40.8,30.10,NE,41,5.0,11.0,43,0.00,,,0.06,Wunderground v.1.15,2013-11-19 02:45:00,
2013-11-18 20:50:00,63.4,41.1,30.11,NE,42,5.0,5.0,44,0.00,,,0.06,Wunderground v.1.15,2013-11-19 02:50:00,
2013-11-18 20:55:00,63.2,41.5,30.10,NE,37,5.0,8.0,45,0.00,,,0.06,Wunderground v.1.15,2013-11-19 02:55:00,
2013-11-18 21:05:00,62.8,41.1,30.10,NE,49,6.0,6.0,45,0.00,,,0.06,Wunderground v.1.15,2013-11-19 03:05:00,
2013-11-18 21:15:00,62.3,41.2,30.11,NE,40,5.0,8.0,46,0.00,,,0.06,Wunderground v.1.15,2013-11-19 03:15:00,
2013-11-18 21:20:00,62.1,41.6,30.11,NNW,335,5.0,8.0,47,0.00,,,0.06,Wunderground v.1.15,2013-11-19 03:20:00,
2013-11-18 21:25:00,61.8,41.3,30.11,NE,36,5.0,8.0,47,0.00,,,0.06,Wunderground v.1.15,2013-11-19 03:25:00,
2013-11-18 21:35:00,61.5,41.1,30.11,North,352,5.0,5.0,47,0.00,,,0.06,Wunderground v.1.15,2013-11-19 03:35:00,
2013-11-18 21:45:00,61.2,41.3,30.12,NNE,31,5.0,6.0,48,0.00,,,0.06,Wunderground v.1.15,2013-11-19 03:45:00,
2013-11-18 21:50:00,61.0,41.2,30.11,NNE,28,5.0,6.0,48,0.00,,,0.06,Wunderground v.1.15,2013-11-19 03:50:00,
2013-11-18 21:55:00,60.9,41.1,30.12,NNE,30,6.0,6.0,48,0.00,,,0.06,Wunderground v.1.15,2013-11-19 03:55:00,
2013-11-18 22:00:00,60.7,40.9,30.12,ENE,68,6.0,6.0,48,0.00,,,0.06,Wunderground v.1.15,2013-11-19 04:00:00,
2013-11-18 22:05:00,60.6,41.3,30.12,NE,38,6.0,6.0,49,0.00,,,0.06,Wunderground v.1.15,2013-11-19 04:05:00,
2013-11-18 22:10:00,60.4,41.1,30.12,NNE,32,5.0,5.0,49,0.00,,,0.06,Wunderground v.1.15,2013-11-19 04:10:00,
2013-11-18 22:20:00,60.0,41.3,30.11,NNE,30,4.0,4.0,50,0.00,,,0.06,Wunderground v.1.15,2013-11-19 04:20:00,
2013-11-18 22:25:00,59.9,41.2,30.12,NNE,28,5.0,8.0,50,0.00,,,0.06,Wunderground v.1.15,2013-11-19 04:25:00,
2013-11-18 22:30:00,59.8,41.1,30.12,NNE,28,5.0,5.0,50,0.00,,,0.06,Wunderground v.1.15,2013-11-19 04:30:00,
2013-11-18 22:35:00,59.8,41.1,30.12,North,7,5.0,5.0,50,0.00,,,0.06,Wunderground v.1.15,2013-11-19 04:35:00,
2013-11-18 22:40:00,59.7,41.0,30.12,North,352,7.0,7.0,50,0.00,,,0.06,Wunderground v.1.15,2013-11-19 04:40:00,
2013-11-18 22:45:00,59.5,41.3,30.12,NNE,32,6.0,7.0,51,0.00,,,0.06,Wunderground v.1.15,2013-11-19 04:45:00,
2013-11-18 22:50:00,59.4,41.3,30.12,NE,41,6.0,6.0,51,0.00,,,0.06,Wunderground v.1.15,2013-11-19 04:50:00,
2013-11-18 22:55:00,59.2,41.1,30.12,NE,38,5.0,8.0,51,0.00,,,0.06,Wunderground v.1.15,2013-11-19 04:55:00,
2013-11-18 23:05:00,59.1,41.5,30.12,NNE,29,5.0,5.0,52,0.00,,,0.06,Wunderground v.1.15,2013-11-19 05:05:00,
2013-11-18 23:10:00,59.1,41.5,30.12,ENE,59,5.0,8.0,52,0.00,,,0.06,Wunderground v.1.15,2013-11-19 05:10:00,
2013-11-18 23:15:00,59.2,42.1,30.12,NNE,28,6.0,8.0,53,0.00,,,0.06,Wunderground v.1.15,2013-11-19 05:15:00,
2013-11-18 23:20:00,59.2,41.6,30.12,NNE,24,6.0,6.0,52,0.00,,,0.06,Wunderground v.1.15,2013-11-19 05:20:00,
2013-11-18 23:25:00,59.2,41.6,30.12,ENE,58,5.0,6.0,52,0.00,,,0.06,Wunderground v.1.15,2013-11-19 05:25:00,
2013-11-18 23:30:00,59.2,42.1,30.12,NE,51,5.0,6.0,53,0.00,,,0.06,Wunderground v.1.15,2013-11-19 05:30:00,
2013-11-18 23:35:00,59.1,42.0,30.13,NE,41,6.0,6.0,53,0.00,,,0.06,Wunderground v.1.15,2013-11-19 05:35:00,
2013-11-18 23:40:00,59.1,42.5,30.13,NNE,24,5.0,7.0,54,0.00,,,0.06,Wunderground v.1.15,2013-11-19 05:40:00,
2013-11-18 23:45:00,58.9,42.3,30.12,ENE,58,4.0,7.0,54,0.00,,,0.06,Wunderground v.1.15,2013-11-19 05:45:00,
2013-11-18 23:55:00,58.7,42.1,30.13,ENE,66,4.0,4.0,54,0.00,,,0.06,Wunderground v.1.15,2013-11-19 05:55:00,